Location: ?ernice
(48.8383°N, 14.3803°E)
Time: 16:34:53
(UTC+00:00)

Cosmos 1408 - Pass Details

Date: 23 May 2024
Orbit: 364 x 378 km, 82.6° (Epoch: 13 June)

Event Time Altitude Azimuth Distance (km) Brightness Sun altitude
Exits shadow 01:23:34 25° 186° (S) 783 3.1 -13.4°
Maximum altitude 01:25:07 85° 101° (E) 374 1.9 -13.3°
Drops below altitude 10° 01:28:05 10° 11° (N) 1,368 5.9 -13.0°
Sets 01:30:03 0° 10° (N) 2,222 7.2 -12.8°
